Baltic, SD

8:29 AM CDT on August 28, 2014 (GMT -0500)
477th | Change Station
CLOSE
Current Station
Personal Weather Station
Location: Baltic, SD
Elevation: 1562 ft
Nearby Weather Stations

Elev 1562 ft 43.71 °N, 96.67 °W | Updated 7 minutes ago

Rain
Rain
65.1 °F
Feels Like 65.1 °F
N
6.8
Wind Variable Wind from ESE

Today
High -- | Low -- °F
--% Chance of Precip.
Yesterday
High -- | Low -- °F
Precip. -- in
6:46 AM 8:09 PM
Waxing Crescent, 8% visible
Pressure 29.96 in
Visibility 4.0 miles
Clouds Overcast 500 ft
Dew Point 65 °F
Humidity 99%
Rainfall 0.12 in
Snow Depth Not available.
UV 0 out of 12
Pollen 3.90 out of 12
Air Quality Not available.
Flu Activity Not available.
SPECI KFSD 281324Z 12008KT 4SM -RA BR OVC005 20/19 A2996 RMK AO2 P0003 T02000189

More Conditions Fewer Conditions

Pressure 29.96 in
Visibility 4.0 miles
Clouds Overcast 500 ft
Dew Point 65 °F
Humidity 99%
Rainfall 0.12 in
Snow Depth Not available.
UV 0 out of 12
Pollen 3.90 out of 12
Air Quality Not available.
Flu Activity Not available.
SPECI KFSD 281324Z 12008KT 4SM -RA BR OVC005 20/19 A2996 RMK AO2 P0003 T02000189

More Conditions Fewer Conditions

10-Day Weather Forecast

Almanac

Astronomy

Aug. 28, 2014 Rise Set
Actual Time 6:46 AM CDT 8:09 PM CDT
Civil Twilight 6:16 AM CDT 8:39 PM CDT
Nautical Twilight 5:40 AM CDT 9:15 PM CDT
Astronomical Twilight 5:01 AM CDT 9:53 PM CDT
Moon 9:46 AM CDT 9:26 PM CDT
Length of Visible Light 14h 23m
Length of Day
13h 23m
Tomorrow will be 2m 51s shorter.
Waxing Crescent, 8% of the Moon is Illuminated
Today
Waxing Crescent
Sep 2
First Quarter
Sep 8
Full
Sep 15
Last Quarter
Sep 24
New

Today's Extremes

State Highs State Lows

Community

WunderPhotos

Upload Photos

1,747,947 photos uploaded!

Nearby

Snow Depth

Station Depth Elevation
North Rapid Creek 0 in 6130 ft
Blind Park 0 in 6890 ft

Earthquake Activity

City Distance Mag. Time & Date
No recent earthquake activity has been reported nearby.
Minimum magnitude displayed is 2.5.

Coastal Water Temperatures

Place Temperature
No Stations Reporting

Nearby Weather Stations